[[{"header":{"parameterUnit":"m.s-1","parameterCategory":1,"la1":30.2991,"la2":30.254,"lo1":-89.0895,"lo2":-89.0444,"dy":0.0017,"dx":0.0017,"nx":28,"ny":28,"refTime":"2024-04-05T03:00:00:Z","depth":0,"parameterNumber":2,"parameterNumberName":"U-component_of_WINDS"},"data":[0,0,0,0,0,0,0,0,0,0,0,0,0,0,0,0,0,0,0,0,0,0,0,0,0,0,0,0,0,0,0,0,0,0,0,0,0,0,0,0,0,0,0,0,0,0,0,0,0,0,0,0,0,0,0,0,0,0,5.222,5.2221,0,5.2359,5.236,5.2362,5.2251,5.2246,5.2242,5.2237,5.2382,5.239,5.2398,0,0,0,0,0,0,0,0,0,0,0,0,0,5.186,5.1868,5.222,5.2221,5.2223,5.2358,5.236,5.2362,5.2252,5.2246,5.224,5.2235,5.2379,5.2389,5.2399,0,0,0,0,0,0,0,0,0,0,0,0,0,5.201,5.187,5.2219,5.2184,5.2183,5.2358,5.236,5.2363,5.2253,5.2246,5.2239,5.2232,5.2376,5.2388,5.24,5.2618,0,0,5.2438,5.2443,0,0,0,0,0,0,0,0,5.2001,5.2023,5.2188,5.2187,5.2185,5.228,5.2286,5.2448,5.2255,5.2227,5.2237,5.2229,5.2354,5.2368,5.2409,5.2625,5.2631,5.2439,5.2446,5.2452,5.2455,0,0,0,0,0,0,0,5.1991,5.2017,5.2275,5.219,5.2189,5.2162,5.2176,5.2317,5.2328,5.2228,5.2221,5.2238,5.2352,5.2398,5.2412,5.2633,5.2439,5.245,5.2457,5.2462,5.3033,5.304,0,0,0,0,0,0,5.1984,5.2009,5.227,5.2279,5.2074,5.2174,5.2189,5.2257,5.2326,5.233,5.2244,5.2233,5.238,5.2398,5.2417,5.2675,5.2452,5.2463,5.247,5.3025,5.3035,5.3043,0,0,0,0,0,0,5.1977,5.2009,5.2265,5.2142,5.2172,5.2188,5.2265,5.2263,5.2309,5.2338,5.234,5.2289,5.2375,5.2399,5.2568,5.2678,5.2469,5.248,5.3016,5.3028,5.3039,5.3195,0,0,0,0,0,0,5.1967,5.2007,5.2089,5.2144,5.2179,5.2414,5.2272,5.2271,5.233,5.2316,5.2381,5.2384,5.2371,5.255,5.2581,5.2692,5.249,5.3006,5.3021,5.3035,5.318,5.321,5.3236,0,0,0,0,0,5.1955,5.2129,5.2094,5.2126,5.2283,5.2421,5.2441,5.2421,5.234,5.2423,5.2442,5.2382,5.2662,5.2569,5.2602,5.2718,5.2999,5.3017,5.3034,5.3167,5.3204,5.3235,0,0,0,0,0,0,5.2087,5.2135,5.2097,5.2294,5.2354,5.2402,5.2506,5.2462,5.2546,5.253,5.2503,5.2519,5.2696,5.2724,5.262,5.2932,5.2817,5.2842,5.2907,5.2943,5.297,5.296,5.25,0,0,0,0,0,5.2139,5.2246,5.2283,5.2453,5.2485,5.2491,5.255,5.253,5.2591,5.2616,5.2647,5.271,5.2811,5.2878,5.2974,5.3183,5.3195,5.328,5.3308,5.3331,5.3353,5.3464,5.3502,5.31,5.31,5.31,0,0,5.2248,5.2287,5.2357,5.2481,5.2524,5.2636,5.2513,5.2637,5.272,5.2635,5.2796,5.2821,5.2889,5.3079,5.3164,5.3108,5.3466,5.3353,5.3371,5.3381,5.3486,5.3524,5.3558,5.3112,5.311,5.3108,0,0,5.2503,5.2544,5.2689,5.2736,5.2803,5.2806,5.2841,5.2896,5.2909,5.307,5.3008,5.3107,5.3283,5.3333,5.3381,5.3655,5.3603,5.3687,5.3834,5.3943,5.3975,5.4003,5.4099,5.4134,5.3708,5.3709,5.3709,0,5.263,5.2795,5.277,5.2898,5.2954,5.2882,5.3029,5.3076,5.3172,5.3212,5.3147,5.3365,5.3406,5.3606,5.3672,5.3715,5.3754,5.3679,5.3972,5.4,5.4026,5.4117,5.4154,5.3718,5.3717,5.3716,5.3715,0,5.2947,5.3063,5.3173,5.3266,5.3334,5.3471,5.3467,5.354,5.3514,5.3523,5.3688,5.3734,5.3836,5.3882,5.3859,5.4079,5.4042,5.3976,5.386,5.4074,5.4159,5.4194,5.3732,5.3729,5.3726,5.3723,0,0,5.329,5.3366,5.3407,5.3448,5.3517,5.3606,5.374,5.3839,5.3901,5.397,5.4081,5.4231,5.4169,5.4225,5.4206,5.4302,5.4514,5.4224,5.4225,5.4275,5.4759,5.4807,5.4848,5.448,5.4487,5.4492,5.4752,0,5.3547,5.3779,5.376,5.3979,5.4085,5.4018,5.4134,5.4189,5.4202,5.4294,5.4308,5.4414,5.4326,5.4358,5.445,5.4469,5.4611,5.445,5.4583,5.4588,5.4567,5.4893,5.4946,5.5189,5.4786,5.4792,5.4796,0,5.3878,5.3956,5.4186,5.4238,5.4282,5.4387,5.4475,5.4565,5.4626,5.4628,5.4689,5.4654,5.4789,5.467,5.4855,5.4746,5.48,5.4817,5.4826,5.4837,5.4704,5.4912,5.5266,5.5302,5.4848,5.4844,5.484,0,5.4103,5.4267,5.4425,5.4462,5.4527,5.4602,5.4633,5.4686,5.4747,5.4825,5.4864,5.4957,5.5008,5.5081,5.5072,5.4987,5.526,5.5141,5.5265,5.5266,5.5325,5.5321,5.5692,5.5362,5.5361,5.5361,5.536,0,5.4392,5.4535,5.4527,5.4624,5.4782,5.4759,5.4916,5.4938,5.4986,5.5087,5.5035,5.513,5.5112,5.5208,5.5202,5.5355,5.5379,5.5384,5.5381,5.5389,5.5388,5.5422,5.5405,5.537,5.5368,5.5366,5.5365,0,5.467,5.467,5.4838,5.4885,5.49,5.5015,5.5055,5.5147,5.5154,5.5282,5.5311,5.5323,5.5433,5.5431,5.5556,5.5551,5.5739,5.5717,5.5719,5.5714,5.5837,5.5825,5.6242,5.6295,5.5932,5.5936,5.5939,0,5.4854,5.4962,5.502,5.5083,5.5118,5.522,5.5281,5.5263,5.5329,5.5406,5.5488,5.5593,5.5675,5.5853,5.5873,5.5968,5.5947,5.6087,5.5961,5.5965,5.5948,5.5941,5.5951,5.6111,5.6115,5.6118,5.6121,0,5.5179,5.5174,5.5263,5.5353,5.5427,5.5497,5.5562,5.5617,5.5605,5.5682,5.5792,5.5856,5.5983,5.6087,5.6178,5.6209,5.6164,5.6161,5.6194,5.6202,5.6198,5.6201,5.5784,5.6151,5.6148,5.6146,5.6144,5.6143,5.5415,5.5507,5.5562,5.5663,5.571,5.5771,5.5859,5.5877,5.5969,5.607,5.6053,5.6177,5.6234,5.6352,5.6391,5.6488,5.6438,5.6488,5.65,5.6512,5.6525,5.6184,5.6504,5.6504,5.6503,5.6502,5.6501,0,5.5736,5.5768,5.5862,5.5953,5.6032,5.5982,5.605,5.612,5.6229,5.6286,5.6367,5.6494,5.6594,5.6623,5.6719,5.6791,5.6772,5.6817,5.6811,5.6818,5.6564,5.6525,5.683,5.683,5.683,5.683,5.683,5.683,5.5913,5.6066,5.6067,5.6242,5.6273,5.6393,5.6436,5.6492,5.6537,5.668,5.6763,5.678,5.6826,5.6925,5.7014,5.702,5.7058,5.7111,5.7108,5.6869,5.6837,5.6805,5.6768,5.7119,5.712,5.7354,5.7356,5.7358]},{"header":{"parameterUnit":"m.s-1","parameterCategory":1,"la1":30.2991,"la2":30.254,"lo1":-89.0895,"lo2":-89.0444,"dy":0.0017,"dx":0.0017,"nx":28,"ny":28,"refTime":"2024-04-05T03:00:00:Z","depth":0,"parameterNumber":3,"parameterNumberName":"V-component_of_WINDS"},"data":[0,0,0,0,0,0,0,0,0,0,0,0,0,0,0,0,0,0,0,0,0,0,0,0,0,0,0,0,0,0,0,0,0,0,0,0,0,0,0,0,0,0,0,0,0,0,0,0,0,0,0,0,0,0,0,0,0,0,0.9238,0.9239,0,0.9313,0.9314,0.9315,0.9306,0.9305,0.9304,0.9303,0.9381,0.9384,0.9387,0,0,0,0,0,0,0,0,0,0,0,0,0,0.9087,0.909,0.9238,0.9239,0.924,0.9313,0.9314,0.9315,0.9306,0.9305,0.9304,0.9302,0.938,0.9384,0.9388,0,0,0,0,0,0,0,0,0,0,0,0,0,0.9156,0.9091,0.9238,0.9244,0.9246,0.9313,0.9314,0.9316,0.9307,0.9305,0.9303,0.9301,0.9379,0.9383,0.9388,0.9454,0,0,0.9403,0.9405,0,0,0,0,0,0,0,0,0.9153,0.9162,0.9242,0.9244,0.9246,0.9299,0.929,0.9362,0.9307,0.9284,0.9303,0.9301,0.9355,0.9362,0.938,0.9458,0.9461,0.9403,0.9406,0.9408,0.941,0,0,0,0,0,0,0,0.9148,0.9159,0.9268,0.9244,0.9246,0.9244,0.9251,0.9303,0.9329,0.9286,0.9285,0.9294,0.9356,0.9375,0.9382,0.9462,0.9403,0.9407,0.941,0.9412,0.9598,0.96,0,0,0,0,0,0,0.9141,0.9155,0.9265,0.927,0.9194,0.9248,0.9257,0.9283,0.9328,0.9333,0.9296,0.9293,0.9368,0.9376,0.9384,0.9465,0.9408,0.9413,0.9415,0.9596,0.9599,0.9601,0,0,0,0,0,0,0.9138,0.9151,0.9262,0.9212,0.9226,0.9252,0.9283,0.9286,0.9306,0.9336,0.934,0.9311,0.9367,0.9378,0.9437,0.9467,0.9415,0.9419,0.9594,0.9597,0.96,0.9626,0,0,0,0,0,0,0.9134,0.915,0.9175,0.9213,0.9229,0.9314,0.9284,0.9289,0.9314,0.9312,0.9351,0.9356,0.9366,0.943,0.9442,0.9473,0.9423,0.9591,0.9595,0.9599,0.9622,0.9629,0.9636,0,0,0,0,0,0.9128,0.918,0.9177,0.919,0.9261,0.9315,0.9325,0.9335,0.9316,0.9342,0.9361,0.9355,0.9462,0.9436,0.9449,0.9482,0.9589,0.9594,0.9598,0.962,0.9628,0.9635,0,0,0,0,0,0,0.9146,0.9185,0.9182,0.9247,0.9278,0.9314,0.9347,0.9344,0.9381,0.9377,0.9388,0.9398,0.9457,0.9476,0.9446,0.9549,0.9523,0.9531,0.9534,0.9543,0.9549,0.9544,0.9427,0,0,0,0,0,0.9157,0.9198,0.923,0.9285,0.93,0.9321,0.9345,0.935,0.9382,0.9395,0.9419,0.9451,0.9491,0.9518,0.9557,0.9625,0.9633,0.9654,0.9661,0.9666,0.9672,0.9709,0.9719,0.9616,0.9616,0.9616,0,0,0.9182,0.9208,0.9233,0.9289,0.9313,0.9355,0.9332,0.9377,0.9408,0.9402,0.9459,0.9478,0.9514,0.9578,0.9607,0.9595,0.9703,0.9672,0.9676,0.968,0.9715,0.9725,0.9733,0.9619,0.9618,0.9618,0,0,0.9247,0.9271,0.9319,0.9344,0.9381,0.9394,0.9406,0.9442,0.9454,0.9511,0.9507,0.9544,0.9615,0.964,0.9663,0.9737,0.9733,0.975,0.9784,0.982,0.9828,0.9835,0.9862,0.9871,0.9756,0.9756,0.9756,0,0.9273,0.9335,0.9344,0.939,0.9415,0.9411,0.9459,0.9483,0.9531,0.9548,0.9534,0.9621,0.9645,0.9715,0.9733,0.9751,0.9765,0.9745,0.9826,0.9833,0.984,0.9866,0.9875,0.9758,0.9758,0.9757,0.9757,0,0.9365,0.9408,0.9443,0.9489,0.9517,0.9564,0.958,0.9608,0.961,0.9625,0.9684,0.9712,0.9757,0.9774,0.9777,0.9844,0.9835,0.9823,0.9798,0.9852,0.9876,0.9885,0.976,0.976,0.9759,0.9759,0,0,0.9444,0.9494,0.9507,0.9527,0.9567,0.9601,0.9648,0.9691,0.9715,0.9748,0.9787,0.9846,0.9835,0.986,0.9866,0.9898,0.9955,0.9882,0.9883,0.9895,1.003,1.0038,1.005,0.9951,0.9953,0.9955,1.0027,0,0.9514,0.9596,0.9605,0.9679,0.9719,0.9715,0.9756,0.9785,0.98,0.9836,0.9852,0.9894,0.9876,0.9892,0.9922,0.9941,0.9982,0.9936,0.9988,0.999,0.998,1.0062,1.0072,1.0138,1.0036,1.0038,1.0039,0,0.9606,0.9641,0.9719,0.9753,0.977,0.9806,0.9846,0.9881,0.9914,0.9922,0.995,0.9952,1.0,0.9972,1.0038,1.0007,1.0029,1.0041,1.0044,1.0049,1.0018,1.007,1.016,1.017,1.0054,1.0053,1.0052,0,0.9656,0.9723,0.9778,0.9796,0.9837,0.9862,0.9881,0.9912,0.9937,0.9972,0.9988,1.0029,1.0051,1.0082,1.0094,1.0073,1.016,1.0133,1.0169,1.0168,1.0188,1.0186,1.0282,1.0201,1.0201,1.0201,1.0201,0,0.9733,0.9781,0.9801,0.9835,0.9887,0.9898,0.995,0.9967,0.9994,1.0031,1.0031,1.0065,1.0079,1.0116,1.0126,1.018,1.019,1.0198,1.02,1.0198,1.0197,1.0213,1.0209,1.0204,1.0203,1.0202,1.0202,0,0.9798,0.9814,0.9873,0.9907,0.9917,0.9954,0.9983,1.0016,1.003,1.0077,1.0088,1.011,1.0154,1.0169,1.0222,1.0229,1.0291,1.0289,1.0279,1.028,1.0314,1.0311,1.0424,1.0439,1.0348,1.0349,1.035,0,0.9847,0.9883,0.992,0.9945,0.9964,1.0004,1.0029,1.004,1.0067,1.0107,1.0135,1.0178,1.0213,1.0282,1.0303,1.0343,1.0343,1.0379,1.0349,1.0346,1.0343,1.0341,1.0345,1.0385,1.0386,1.0387,1.0388,0,0.993,0.9936,0.9973,1.0012,1.0043,1.0074,1.0105,1.0125,1.0141,1.0171,1.0215,1.0242,1.0296,1.0339,1.038,1.0399,1.0396,1.0397,1.0407,1.0406,1.0399,1.0403,1.0295,1.0394,1.0394,1.0393,1.0393,1.0393,0.9988,1.002,1.0052,1.0093,1.0117,1.0145,1.0177,1.0195,1.0232,1.0277,1.0281,1.0328,1.036,1.0415,1.0435,1.0473,1.0463,1.0477,1.0481,1.0485,1.0487,1.0393,1.048,1.048,1.048,1.048,1.048,0,1.0072,1.0092,1.0129,1.0172,1.0204,1.0198,1.0232,1.0259,1.0301,1.033,1.0365,1.0415,1.0456,1.048,1.0521,1.0547,1.0547,1.0557,1.0556,1.056,1.0494,1.0481,1.0557,1.0557,1.0557,1.0557,1.0557,1.0557,1.0119,1.0173,1.0182,1.0248,1.0267,1.0314,1.0333,1.036,1.0383,1.044,1.0474,1.0489,1.0516,1.0559,1.0597,1.0602,1.0618,1.0629,1.0634,1.0573,1.0565,1.0557,1.0545,1.0633,1.0633,1.0697,1.0698,1.0698]}]]